Retour au catalogue

YAOGAN-31 C

ActifMilitaireLEO
NORAD 43277·PAYLOAD·🇨🇳 China

Lancé Apr 10, 2018 depuis Jiuquan Satellite Launch Center

Loading…

Prochains Passages (prochaines 24 heures)

TLE

FraisSource: Space-Track

Époque: Sep 14, 2026, 15:04 UTC

1 43277U 18034C   26257.62816866  .00000013  00000-0  13759-3 0  9996
2 43277  63.3936 220.5097 0283368   7.3864 353.1204 13.45450101414278

Suivez YAOGAN-31 C en temps réel avec AllMySat

Download on the App Store